AXY22B EDDL-KATL

Flight info

Callsign AXY22B
Flight time N/A
Altitude 18000
Route NETEX1K NETEX Z282 DIBIR L179 ELSIK/N0432F320 DCT DENUT/N0434F340 L610 KOPUL Q60 OKSAW DCT TEWXI DCT LIPGO DCT RESNO/M076F360 DCT 56N020W 56N030W 56N040W 55N050W DCT LOMSI/N0447F380 N662C TOPPS DCT ENE DCT BAF Q448 BIGGO/N0432F400 Q448 PTW J48 MOL DCT FLASK OZZZI1
Aircraft B737/M-SDE2E3FGHIRWXY/LB1

Departure

Time 2026-05-04 21:53
Airport Düsseldorf Airport (EDDL)

Arrival

Time N/A
Airport Hartsfield Jackson Atlanta International Airport (KATL)
Time Latitude Longitude Altitude Speed Heading
2026-05-04 21:33 51.27669 6.75379 126 ft 0 kts 240°
2026-05-04 21:42 51.27671 6.75384 121 ft 2 kts 240°
2026-05-04 21:42 51.27679 6.75407 120 ft 2 kts 240°
2026-05-04 21:43 51.27683 6.75419 121 ft 1 kts 240°
2026-05-04 21:43 51.27687 6.75429 124 ft 2 kts 240°
2026-05-04 21:43 51.27692 6.75449 124 ft 1 kts 275°
2026-05-04 21:43 51.27691 6.75458 123 ft 1 kts 279°
2026-05-04 21:44 51.27690 6.75467 122 ft 1 kts 291°
2026-05-04 21:44 51.27690 6.75472 124 ft 0 kts 333°
2026-05-04 21:46 51.27698 6.75465 123 ft 3 kts 331°
2026-05-04 21:46 51.27728 6.75439 122 ft 7 kts 333°
2026-05-04 21:47 51.27777 6.75400 123 ft 9 kts 333°
2026-05-04 21:47 51.27833 6.75404 124 ft 9 kts 36°
2026-05-04 21:47 51.27875 6.75484 126 ft 11 kts 53°
2026-05-04 21:47 51.27924 6.75590 126 ft 13 kts 52°
2026-05-04 21:48 51.27991 6.75729 129 ft 19 kts 52°
2026-05-04 21:48 51.28085 6.75925 133 ft 25 kts 52°
2026-05-04 21:48 51.28204 6.76175 133 ft 31 kts 53°
2026-05-04 21:48 51.28336 6.76451 131 ft 30 kts 52°
2026-05-04 21:49 51.28458 6.76709 134 ft 28 kts 52°
2026-05-04 21:49 51.28574 6.76953 139 ft 27 kts 52°
2026-05-04 21:49 51.28686 6.77186 140 ft 27 kts 53°
2026-05-04 21:49 51.28803 6.77430 139 ft 28 kts 52°
2026-05-04 21:50 51.28919 6.77675 141 ft 27 kts 53°
2026-05-04 21:50 51.29029 6.77907 144 ft 25 kts 52°
2026-05-04 21:50 51.29136 6.78131 145 ft 25 kts 52°
2026-05-04 21:50 51.29238 6.78346 144 ft 23 kts 53°
2026-05-04 21:51 51.29318 6.78513 146 ft 15 kts 50°
2026-05-04 21:51 51.29407 6.78571 146 ft 14 kts 359°
2026-05-04 21:51 51.29501 6.78548 149 ft 14 kts 330°
2026-05-04 21:51 51.29503 6.78433 147 ft 8 kts 234°
2026-05-04 21:52 51.29498 6.78423 147 ft 0 kts 232°
2026-05-04 21:52 51.29479 6.78386 147 ft 21 kts 232°
2026-05-04 21:52 51.29221 6.77846 146 ft 99 kts 233°
2026-05-04 21:52 51.28666 6.76682 140 ft 163 kts 232°
2026-05-04 21:53 51.27899 6.75091 527 ft 189 kts 232°
2026-05-04 21:53 51.27091 6.73376 1410 ft 196 kts 232°
2026-05-04 21:53 51.26329 6.71553 2249 ft 200 kts 243°
2026-05-04 21:53 51.26036 6.69343 2795 ft 214 kts 273°
2026-05-04 21:54 51.26593 6.67045 3105 ft 238 kts 306°
2026-05-04 21:54 51.27693 6.65018 3755 ft 242 kts 310°
2026-05-04 21:54 51.28777 6.62936 4401 ft 250 kts 306°
2026-05-04 21:54 51.29824 6.60561 4858 ft 268 kts 302°
2026-05-04 21:55 51.30819 6.58021 5702 ft 271 kts 300°
2026-05-04 21:55 51.31768 6.55394 6546 ft 274 kts 298°
2026-05-04 21:55 51.32667 6.52683 7335 ft 277 kts 290°
2026-05-04 21:55 51.32955 6.49650 8101 ft 278 kts 268°
2026-05-04 21:56 51.32884 6.46546 8907 ft 281 kts 266°
2026-05-04 21:56 51.32778 6.43389 9669 ft 286 kts 266°
2026-05-04 21:56 51.32670 6.40185 10333 ft 294 kts 266°
2026-05-04 21:56 51.32562 6.36795 10546 ft 317 kts 266°
2026-05-04 21:57 51.32456 6.33140 10740 ft 340 kts 267°
2026-05-04 21:57 51.32350 6.29227 10909 ft 363 kts 267°
2026-05-04 21:57 51.32246 6.25106 11263 ft 377 kts 267°
2026-05-04 21:57 51.32144 6.20873 11877 ft 383 kts 267°
2026-05-04 21:58 51.32043 6.16596 12604 ft 386 kts 267°
2026-05-04 21:58 51.31942 6.12294 13302 ft 390 kts 267°
2026-05-04 21:58 51.31838 6.07923 13942 ft 395 kts 267°
2026-05-04 21:58 51.31733 6.03516 14559 ft 398 kts 267°
2026-05-04 21:59 51.31626 5.99078 15219 ft 400 kts 267°
2026-05-04 21:59 51.31102 5.77469 18205 ft 412 kts 267°
2026-05-04 21:59 51.30068 5.39211 22213 ft 434 kts 266°
2026-05-04 21:59 51.28785 4.99896 25310 ft 453 kts 266°
2026-05-04 22:00 51.27384 4.59008 27888 ft 466 kts 266°
2026-05-04 22:00 51.25863 4.18499 30777 ft 459 kts 265°
2026-05-04 22:00 51.24164 3.78425 33507 ft 443 kts 265°